LiveATC.Net - Listen to live air traffic control over the Internet!


ICAO: EHKD  IATA: DHR   Airport: De Kooy Airfield
City: Den Helder
Country: Netherlands   Continent: Europe
EHKD METAR Weather: EHKD 271555Z AUTO 11006KT 080V140 9999 FEW006 BKN012 OVC015 07/06 Q1019 GRN TEMPO SCT004 BKN006
EHKD Flight Activity (FlightAware)

EHKD ATIS
Feed Status: UP   Listeners: 0
Listen in your browser - HTML5 player (in browser, HTML5)
Click here to listen with your own player (launches your MP3 player)
Archive Access: EHKD ATIS
FacilityFrequency
De Kooy ATIS133.015

EHKD Ground/Tower
Feed Status: UP   Listeners: 1
Listen in your browser - HTML5 player (in browser, HTML5)
Click here to listen with your own player (launches your MP3 player)
Archive Access: EHKD Ground/Tower
FacilityFrequency
De Kooy Ground121.730
De Kooy Tower120.130

NOTICE

Unauthorized use prohibited. See LiveATC.net Terms of Service


Airport/ARTCC Code
Frequency Search
(e.g., 124.400, 128.75)
Site-wide search
 


Browse Feeds
Top 50 Feeds
Coverage Map
Bad Weather Areas

LiveATC FAQ
Offer LiveATC feed
Contact LiveATC.net
Press Inquiries

LiveATC on iPhone
LiveATC on Android

Windows Phone
Windows 8/10

LiveATC Mobile
(Mobile browser)

ATC Audio Archives
Interesting Recordings

LiveATC Forums


Home Page
About LiveATC.net
Make a Donation
Terms of Use
Privacy Policy

Canadian Air Freqs

AIRMETs/SIGMETs

FAA Airport Status
Nat'l Airspace Status
Arrival Demand Charts


Server Software By:
Icecast.org
Liquidsoap